Regional Weather Roundup
Issued by NWS

Home | Current Version | Previous Version | Graphics & Text | Print | Product List | Glossary On
Versions: 1 2 3 4 5 6 7 8 9 10 11 12 13 14 15 16 17 18 19 20 21 22 23 24 25 26 27 28 29 30 31 32 33 34 35 36 37 38 39 40 41 42 43 44 45 46 47 48 49 50
000
ASUS43 KDMX 230706
RWRIA

WEATHER ROUNDUP FOR IOWA
NATIONAL WEATHER SERVICE DES MOINES IA
200 AM CDT THU MAR 23 2017

NOTE: "FAIR" INDICATES FEW OR NO CLOUDS BELOW 12,000 FEET WITH NO
SIGNIFICANT WEATHER AND/OR OBSTRUCTIONS TO VISIBILITY.

* - THESE STATIONS ARE NOT NWS STATIONS...THUS NOT UNDER NWS
QUALITY CONTROL.  THEY ALSO DO NOT REPORT WEATHER SUCH
AS PRECIPITATION OR FOG.

IAZ001>003-012>014-020>022-031>034-043>046-230800-
   NORTHWEST IOWA

CITY           SKY/WX    TMP DP  RH WIND       PRES   REMARKS
CARROLL *      CLOUDY    41  21  45 SE15G22   30.16R
CHEROKEE *     CLOUDY    40  23  51 S13G20    30.13F WCI  33
DENISON *      CLOUDY    41  23  48 SE16G22   30.12F
LE MARS *      CLOUDY    41  25  52 S14       30.11F
ORANGE CITY *  CLOUDY    39  27  60 S12G18    30.10F WCI  32
SHELDON *      CLOUDY    39  28  65 SE18      30.09F WCI  30
SIOUX CITY     CLOUDY    42  26  53 SE13      30.10F
SPENCER        CLOUDY    39  24  55 SE15      30.14F WCI  31
STORM LAKE *   CLOUDY    39  23  52 SE17G23   30.14S WCI  30
$$

IAZ055>058-069>071-079>083-090>094-230800-
   SOUTHWEST IOWA

CITY           SKY/WX    TMP DP  RH WIND       PRES   REMARKS
ATLANTIC *     CLOUDY    43  18  36 SE9G16    30.14F
AUDUBON *      CLOUDY    41  19  42 SE10      30.15F
CLARINDA *     CLOUDY    45  18  33 SE13G18   30.17F
COUNCIL BLFS * CLOUDY    43  23  45 SE16      30.12S
CRESTON *      CLOUDY    43  16  33 SE17G23   30.17S
HARLAN  *      CLOUDY    43  19  39 SE15      30.16F
LAMONI         CLOUDY    44  14  29 SE12G21   30.18F
RED OAK *      CLOUDY    45  19  36 SE15      30.14F
SHENANDOAH *   CLOUDY    46  21  36 SE14G20   30.14S
$$

IAZ047>049-059>061-072>074-084-230800-
   CENTRAL IOWA

CITY           SKY/WX    TMP DP  RH WIND       PRES   REMARKS
AMES           CLOUDY    39  20  46 SE15      30.22F WCI  31
ANKENY *       CLOUDY    41  18  38 SE14      30.23F
BOONE *        CLOUDY    39  19  45 SE20      30.19F WCI  30
CHARITON *     CLOUDY    41  14  33 SE15      30.21F
DES MOINES     CLOUDY    43  16  33 SE15      30.22
GRINNELL*      CLOUDY    38  18  45 SE14      30.27S WCI  29
MARSHALLTOWN   CLOUDY    38  20  48 SE16      30.26S WCI  29
NEWTON *       CLOUDY    39  18  41 SE17G24   30.24S WCI  30
PELLA *        CLOUDY    40  17  39 SE12      30.26F WCI  32
PERRY *        CLOUDY    40  16  36 SE15      30.19F WCI  32
$$

IAZ004>006-015-016-023>025-035-036-230800-
   NORTH CENTRAL IOWA

CITY           SKY/WX    TMP DP  RH WIND       PRES   REMARKS
ALGONA *       CLOUDY    37  25  60 SE14G21   30.18F WCI  29
CLARION *      CLOUDY    37  23  56 SE18G24   30.20F WCI  27
ESTHERVILLE    CLOUDY    35  25  66 SE17      30.15F WCI  25
FORT DODGE *   CLOUDY    39  18  41 SE10      30.20S WCI  32
MASON CITY     CLOUDY    35  23  61 SE20      30.25R WCI  24
FOREST CITY *  CLOUDY    34  25  69 SE16      30.23R WCI  23
WEBSTER CITY * CLOUDY    39  21  48 SE16G23   30.18F WCI  30
IOWA FALLS *   CLOUDY    38  22  51 SE16G23   30.25S WCI  29
$$

IAZ007>011-017>019-026>030-037>042-050>054-066-230800-
   NORTHEAST IOWA

CITY           SKY/WX    TMP DP  RH WIND       PRES   REMARKS
CEDAR RAPIDS   CLOUDY    35  22  58 SE14G25   30.30F WCI  26
CHARLES CITY * CLOUDY    36  23  60 SE17G25   30.27F WCI  25
CLINTON *      CLOUDY    33  22  63 SE16      30.38  WCI  23
DECORAH *      CLOUDY    36  23  60 SE13      30.29S WCI  27
DUBUQUE        CLOUDY    34  19  54 S15       30.34F WCI  24
MONTICELLO *   PTCLDY    34  21  60 SE15      30.33F WCI  24
OELWEIN *      CLOUDY    34  25  69 SE15      30.30S WCI  24
WATERLOO       CLOUDY    37  20  50 SE15      30.29  WCI  28
$$

IAZ064-065-067-068-078-230800-
   EAST CENTRAL IOWA

CITY           SKY/WX    TMP DP  RH WIND       PRES   REMARKS
DAVENPORT      CLOUDY    33  20  58 SE14      30.36F WCI  23
IOWA CITY      CLOUDY    37  22  54 SE12      30.34F WCI  29
MUSCATINE *    CLOUDY    37  21  52 SE12      30.35S WCI  30
QUAD CITIES    MOCLDY    34  21  59 SE13      30.36F WCI  25
$$

IAZ062-063-075>077-085>089-095>099-230800-
   SOUTHEAST IOWA

CITY           SKY/WX    TMP DP  RH WIND       PRES   REMARKS
BURLINGTON     CLOUDY    37  22  54 SE13      30.32  WCI  29
FAIRFIELD *    CLOUDY    39  19  45 SE13      30.29S WCI  32
FORT MADISON * CLOUDY    37  21  52 SE13      30.32F WCI  29
KEOKUK *       CLOUDY    39  19  45 SE10      30.31S WCI  32
OSKALOOSA *    CLOUDY    37  20  49 SE14      30.27F WCI  29
CENTERVILLE *  CLOUDY    41  14  33 SE15G23   30.25F
OTTUMWA        CLOUDY    40  16  37 SE15      30.26F WCI  32
WASHINGTON *   CLOUDY    37  21  52 SE16G22   30.31F WCI  28
$$

ABBREVIATIONS USED IN REMARKS
   TC - TEMPERATURES IN CELSIUS
  WCI - WIND CHILL INDEX
   HX - HEAT INDEX
  VSB - VISIBILITY
$$




USA.gov is the U.S. government's official web portal to all federal, state and local government web resources and services.